| time (UTC) | temp F | wind direction | speed MPH | gust MPH | rain 1hr in | rain 24hr in | rain mn in | humidity % | barometer mb |
| 20260906230035 | 64 | 329 | 6.0 | 10.0 | 0.00 | 0.38 | 0.33 | 75 | 1014.0 |
| 20260906224536 | 63 | 328 | 6.0 | 11.0 | 0.00 | 0.38 | 0.33 | 75 | 1014.2 |
| 20260906223037 | 62 | 282 | 6.0 | 11.0 | 0.00 | 0.38 | 0.33 | 77 | 1014.4 |
| 20260906221536 | 62 | 263 | 6.0 | 10.0 | 0.00 | 0.38 | 0.33 | 78 | 1014.6 |
| 20260906220035 | 61 | 260 | 6.0 | 11.0 | 0.00 | 0.38 | 0.33 | 79 | 1014.7 |
| 20260906214539 | 62 | 252 | 6.0 | 11.0 | 0.00 | 0.38 | 0.33 | 78 | 1014.7 |
| 20260906213039 | 62 | 258 | 6.0 | 11.0 | 0.00 | 0.38 | 0.33 | 79 | 1014.7 |
| 20260906211537 | 62 | 223 | 5.0 | 9.0 | 0.00 | 0.38 | 0.33 | 80 | 1014.7 |
| 20260906210033 | 62 | 218 | 5.0 | 9.0 | 0.00 | 0.38 | 0.33 | 81 | 1014.4 |
| 20260906204535 | 62 | 217 | 4.0 | 8.0 | 0.00 | 0.38 | 0.33 | 82 | 1014.5 |
| 20260906203037 | 61 | 215 | 4.0 | 8.0 | 0.00 | 0.38 | 0.33 | 83 | 1014.5 |
| 20260906201534 | 62 | 207 | 3.0 | 7.0 | 0.00 | 0.38 | 0.33 | 82 | 1014.5 |
| 20260906200036 | 62 | 210 | 4.0 | 7.0 | 0.00 | 0.38 | 0.33 | 82 | 1014.5 |
| 20260906194535 | 62 | 184 | 4.0 | 8.0 | 0.00 | 0.38 | 0.33 | 82 | 1014.4 |
| 20260906193036 | 62 | 183 | 5.0 | 9.0 | 0.00 | 0.38 | 0.33 | 82 | 1014.6 |
| 20260906191535 | 62 | 211 | 3.0 | 6.0 | 0.00 | 0.38 | 0.33 | 82 | 1014.9 |
| 20260906190036 | 62 | 0 | 1.0 | 7.0 | 0.00 | 0.38 | 0.33 | 82 | 1015.0 |
| 20260906184537 | 62 | 107 | 5.0 | 10.0 | 0.00 | 0.38 | 0.33 | 83 | 1015.0 |
| 20260906183036 | 62 | 50 | 6.0 | 14.0 | 0.00 | 0.38 | 0.33 | 83 | 1014.9 |
| 20260906181538 | 61 | 38 | 12.0 | 16.0 | 0.00 | 0.38 | 0.33 | 86 | 1014.5 |
| 20260906180038 | 59 | 18 | 12.0 | 17.0 | 0.00 | 0.38 | 0.33 | 90 | 1015.1 |
| 20260906174539 | 58 | 19 | 13.0 | 19.0 | 0.00 | 0.38 | 0.33 | 91 | 1015.4 |
| 20260906173039 | 57 | 24 | 12.0 | 15.0 | 0.00 | 0.38 | 0.33 | 92 | 1016.0 |
| 20260906171538 | 56 | 46 | 15.0 | 21.0 | 0.02 | 0.38 | 0.33 | 93 | 1015.9 |
| 20260906170106 | 55 | 19 | 10.0 | 15.0 | 0.04 | 0.38 | 0.33 | 94 | 1016.3 |
| 20260906164534 | 54 | 329 | 9.0 | 13.0 | 0.06 | 0.39 | 0.33 | 94 | 1017.0 |
| 20260906163038 | 54 | 276 | 11.0 | 14.0 | 0.09 | 0.39 | 0.33 | 94 | 1017.1 |
| 20260906161536 | 54 | 298 | 6.0 | 8.0 | 0.10 | 0.37 | 0.31 | 94 | 1016.8 |
| 20260906160038 | 54 | 327 | 5.0 | 9.0 | 0.12 | 0.35 | 0.29 | 94 | 1016.7 |
| 20260906154537 | 53 | 318 | 8.0 | 13.0 | 0.13 | 0.33 | 0.27 | 94 | 1017.0 |
| 20260906153040 | 53 | 341 | 10.0 | 17.0 | 0.14 | 0.30 | 0.24 | 94 | 1017.1 |
| 20260906151537 | 53 | 336 | 12.0 | 15.0 | 0.14 | 0.26 | 0.20 | 94 | 1017.1 |
| 20260906150036 | 53 | 317 | 10.0 | 19.0 | 0.15 | 0.23 | 0.17 | 94 | 1017.4 |
| 20260906144537 | 52 | 329 | 13.0 | 19.0 | 0.11 | 0.21 | 0.13 | 94 | 1017.5 |
| 20260906143039 | 52 | 311 | 17.0 | 21.0 | 0.08 | 0.18 | 0.10 | 94 | 1017.7 |
| 20260906141538 | 53 | 305 | 19.0 | 27.0 | 0.04 | 0.14 | 0.06 | 93 | 1018.0 |
| 20260906140041 | 54 | 280 | 13.0 | 22.0 | 0.00 | 0.10 | 0.02 | 91 | 1017.8 |
| 20260906134550 | 55 | 292 | 12.0 | 17.0 | 0.00 | 0.14 | 0.02 | 90 | 1017.7 |
| 20260906133038 | 55 | 297 | 1.0 | 8.0 | 0.00 | 0.14 | 0.02 | 91 | 1016.7 |
| 20260906131536 | 55 | 228 | 2.0 | 5.0 | 0.00 | 0.14 | 0.02 | 90 | 1016.9 |
| 20260906130037 | 55 | 35 | 2.0 | 5.0 | 0.00 | 0.14 | 0.02 | 89 | 1016.8 |
| 20260906124544 | 55 | 334 | 5.0 | 11.0 | 0.00 | 0.14 | 0.02 | 89 | 1017.1 |
| 20260906123106 | 55 | 336 | 11.0 | 17.0 | 0.00 | 0.14 | 0.02 | 88 | 1017.5 |
| 20260906121540 | 55 | 339 | 10.0 | 18.0 | 0.00 | 0.14 | 0.02 | 88 | 1017.5 |
| 20260906120038 | 56 | 335 | 12.0 | 23.0 | 0.00 | 0.14 | 0.02 | 85 | 1017.2 |
| 20260906114535 | 56 | 298 | 14.0 | 20.0 | 0.00 | 0.14 | 0.02 | 87 | 1017.3 |
| 20260906113038 | 57 | 78 | 17.0 | 23.0 | 0.00 | 0.14 | 0.02 | 83 | 1016.6 |
| 20260906111536 | 56 | 84 | 14.0 | 18.0 | 0.00 | 0.14 | 0.02 | 85 | 1016.8 |
| 20260906110038 | 55 | 98 | 5.0 | 8.0 | 0.00 | 0.14 | 0.02 | 91 | 1016.8 |
| 20260906104537 | 55 | 71 | 5.0 | 8.0 | 0.00 | 0.14 | 0.02 | 91 | 1016.6 |
| 20260906103036 | 55 | 5 | 4.0 | 8.0 | 0.00 | 0.14 | 0.02 | 91 | 1017.1 |
| 20260906101535 | 55 | 360 | 6.0 | 11.0 | 0.00 | 0.14 | 0.02 | 91 | 1017.2 |
| 20260906100036 | 56 | 17 | 9.0 | 13.0 | 0.00 | 0.14 | 0.02 | 90 | 1017.1 |
| 20260906094536 | 56 | 18 | 11.0 | 16.0 | 0.00 | 0.14 | 0.02 | 91 | 1017.1 |
| 20260906093040 | 55 | 18 | 14.0 | 20.0 | 0.01 | 0.14 | 0.02 | 91 | 1017.2 |
| 20260906091545 | 55 | 9 | 17.0 | 24.0 | 0.02 | 0.14 | 0.02 | 91 | 1017.4 |
| 20260906090036 | 55 | 17 | 18.0 | 23.0 | 0.02 | 0.14 | 0.02 | 92 | 1017.4 |
| 20260906084538 | 54 | 346 | 14.0 | 19.0 | 0.02 | 0.14 | 0.02 | 92 | 1018.2 |
| 20260906083036 | 56 | 301 | 12.0 | 19.0 | 0.01 | 0.13 | 0.01 | 89 | 1018.9 |
| 20260906081539 | 57 | 349 | 15.0 | 23.0 | 0.00 | 0.12 | 0.00 | 85 | 1018.6 |
| 20260906080039 | 56 | 246 | 17.0 | 33.0 | 0.00 | 0.12 | 0.00 | 90 | 1019.4 |
| 20260906074545 | 56 | 360 | 14.0 | 20.0 | 0.00 | 0.12 | 0.00 | 90 | 1017.7 |
| 20260906073036 | 55 | 328 | 11.0 | 15.0 | 0.00 | 0.12 | 0.00 | 90 | 1018.1 |
| 20260906071534 | 56 | 331 | 13.0 | 21.0 | 0.00 | 0.12 | 0.00 | 89 | 1018.3 |
| 20260906070039 | 56 | 11 | 17.0 | 24.0 | 0.00 | 0.12 | 0.00 | 88 | 1018.0 |
| 20260906064536 | 55 | 9 | 16.0 | 21.0 | 0.00 | 0.12 | 0.00 | 89 | 1018.1 |
| 20260906063038 | 55 | 349 | 14.0 | 23.0 | 0.00 | 0.12 | 0.00 | 89 | 1018.9 |
| 20260906061539 | 55 | 340 | 17.0 | 21.0 | 0.00 | 0.12 | 0.00 | 90 | 1018.9 |
| 20260906060036 | 56 | 340 | 21.0 | 27.0 | 0.00 | 0.12 | 0.00 | 86 | 1019.5 |
| 20260906054540 | 55 | 305 | 13.0 | 18.0 | 0.00 | 0.12 | 0.12 | 88 | 1019.3 |
| 20260906053036 | 55 | 351 | 13.0 | 20.0 | 0.01 | 0.12 | 0.12 | 89 | 1018.4 |
| 20260906051534 | 55 | 360 | 16.0 | 21.0 | 0.01 | 0.12 | 0.12 | 89 | 1018.7 |
| 20260906050049 | 55 | 346 | 16.0 | 25.0 | 0.01 | 0.12 | 0.12 | 89 | 1018.5 |
| 20260906044534 | 55 | 331 | 16.0 | 22.0 | 0.01 | 0.12 | 0.12 | 89 | 1018.5 |
| 20260906043035 | 55 | 280 | 8.0 | 16.0 | 0.02 | 0.11 | 0.11 | 88 | 1019.4 |
| 20260906041533 | 56 | 10 | 18.0 | 27.0 | 0.04 | 0.11 | 0.11 | 87 | 1017.7 |
| 20260906040040 | 56 | 9 | 20.0 | 26.0 | 0.04 | 0.11 | 0.11 | 87 | 1017.6 |
| 20260906034536 | 56 | 352 | 21.0 | 28.0 | 0.04 | 0.11 | 0.11 | 87 | 1017.8 |
| 20260906033046 | 56 | 350 | 15.0 | 22.0 | 0.02 | 0.09 | 0.09 | 87 | 1018.5 |
| 20260906031535 | 59 | 270 | 7.0 | 12.0 | 0.00 | 0.07 | 0.07 | 80 | 1019.8 |
| 20260906030034 | 60 | 340 | 10.0 | 15.0 | 0.00 | 0.07 | 0.07 | 70 | 1018.6 |
| 20260906024544 | 61 | 348 | 13.0 | 19.0 | 0.00 | 0.07 | 0.07 | 69 | 1017.0 |
| 20260906023044 | 61 | 360 | 13.0 | 21.0 | 0.00 | 0.07 | 0.07 | 70 | 1016.5 |
| 20260906021534 | 61 | 360 | 14.0 | 20.0 | 0.00 | 0.07 | 0.07 | 70 | 1016.6 |
| 20260906020037 | 61 | 360 | 13.0 | 19.0 | 0.00 | 0.07 | 0.07 | 69 | 1016.8 |
| 20260906014536 | 62 | 360 | 12.0 | 17.0 | 0.00 | 0.07 | 0.07 | 69 | 1016.8 |
| 20260906013047 | 63 | 11 | 12.0 | 18.0 | 0.00 | 0.07 | 0.07 | 68 | 1016.8 |
| 20260906011549 | 63 | 15 | 14.0 | 21.0 | 0.00 | 0.07 | 0.07 | 67 | 1016.7 |
| 20260906010041 | 64 | 17 | 15.0 | 22.0 | 0.00 | 0.07 | 0.07 | 65 | 1016.8 |
| 20260906004535 | 64 | 360 | 14.0 | 19.0 | 0.00 | 0.07 | 0.07 | 64 | 1016.7 |
| 20260906003036 | 65 | 352 | 15.0 | 19.0 | 0.00 | 0.07 | 0.07 | 62 | 1017.0 |
| 20260906001536 | 67 | 360 | 13.0 | 19.0 | 0.00 | 0.07 | 0.07 | 59 | 1017.1 |
| 20260906000049 | 68 | 360 | 16.0 | 22.0 | 0.00 | 0.07 | 0.07 | 57 | 1017.1 |
| 20260905234535 | 68 | 360 | 15.0 | 18.0 | 0.00 | 0.07 | 0.07 | 56 | 1017.3 |
| 20260905233039 | 68 | 333 | 12.0 | 19.0 | 0.00 | 0.07 | 0.07 | 56 | 1017.4 |
| 20260905231546 | 69 | 360 | 13.0 | 20.0 | 0.00 | 0.07 | 0.07 | 55 | 1017.3 |